Location: Beverley
(50.2667°N, 107.9667°W)
Time: 21:44:41
(UTC+00:00)

Envisat - Pass Details

Date: 29 January 2022
Orbit: 764 x 765 km, 98.2° (Epoch: 21 May)

Event Time Altitude Azimuth Distance (km) Brightness Sun altitude
Rises 10:45:55 0° 28° (NNE) 3,243 6.8 -38.7°
Reaches altitude 10° 10:49:09 10° 49° (NE) 2,311 6.1 -38.2°
Maximum altitude 10:52:17 16° 87° (E) 1,906 5.6 -37.7°
Drops below altitude 10° 10:55:24 10° 126° (SE) 2,301 5.8 -37.3°
Sets 10:58:35 0° 147° (SSE) 3,221 6.4 -36.8°
